Flight Information

DEPARTURE
YUMA, AZ
Elevation:
213
Runways:
8/26 - 6146x150 - ASPH-G
17/35 - 5710x150 - ASPH-G
3L/21R - 13300x200 - CONC-G
3R/21L - 9240x150 - ASPH-CONC-G
ATIS:
118.8
Clearance Delivery:
118
Ground:
121.9
Tower:
119.3
DESTINATION
,
Elevation:
TPA:
1000 (est.)


6631 NM76° True-13° Var63° HDG

Flight Plan:
(click to file on line)

1. Type
2. Aircraft Identification
3. Aircraft Type / Special Equipment
4. True Airspeed
kts
5. Departure Airport
(ICAO code)
6. Arriving Airport
(ICAO code)
7. Cruising Altitude
ft
8. Alternate Airport
(ICAO code)
9. Route of Flight
10. Remarks


00:00:00 Departure ATIS: Destination ATIS:

Clearance Limit:
Route:
Altitude: Expect in minutes
Frequency:
Transponder: (7500 Hijack / 7600 Lost Comms / 7700 Emergency)


KNYL 280957Z AUTO 00000KT 10SM CLR 23/09 A2980 RMK AO2 SLP089 T02330094 $
Time: 2020-09-28T09:57:00Z
1601290640
Winds: calm
Visibility: 10.0 sm
Clouds (AGL): CLR
Temperature: 23.3 C
Dew Point: 9.4 C
Pressure: 29.799213 in Hgbr


Notes:

Data extracted from FAA Digital Chart Supplement. Effective: 0901Z Thursday, Sep 10, 2020 to 0901Z Thursday, Nov 5, 2020
Current ATIS data is provided courtisy of PilotEdge.